Regional Weather Roundup
Issued by NWS

Home | Current Version | Previous Version | Text Only | Print | Product List | Glossary On
Versions: 1 2 3 4 5 6 7 8 9 10 11 12 13 14 15 16 17 18 19 20 21 22 23 24 25 26 27 28 29 30 31 32 33 34 35 36 37 38 39 40 41 42 43 44 45 46 47 48 49 50
000
ASUS44 KFWD 210615
RWRTX
NORTH TEXAS HOURLY WEATHER ROUNDUP
NATIONAL WEATHER SERVICE FORT WORTH TX
100 AM CDT TUE APR 21 2015

NOTE: "FAIR" INDICATES FEW OR NO CLOUDS BELOW 12,000 FEET WITH NO
SIGNIFICANT WEATHER AND/OR OBSTRUCTIONS TO VISIBILITY.

TXZ118-119-210700-
DALLAS/FORT WORTH METROPLEX

CITY           SKY/WX    TMP DP  RH WIND       PRES   REMARKS
DFW AIRPORT    FAIR      56  43  61 SE3       30.02R
6HR MIN TEMP:  53; 6HR MAX TEMP:  67;

DALLAS LOVE    FAIR      58  44  60 SE6       30.02S
6HR MIN TEMP:  57; 6HR MAX TEMP:  69;

FTW MEACHAM    FAIR      56  44  64 SE5       30.01S
6HR MIN TEMP:  55; 6HR MAX TEMP:  67;

DAL-EXECUTIVE  FAIR      53  43  68 CALM      30.02S
6HR MIN TEMP:  52; 6HR MAX TEMP:  69;

FTW-ALLIANCE   FAIR      54  43  66 CALM      30.02R
6HR MIN TEMP:  49; 6HR MAX TEMP:  67;

FTW-NAS-JRB    FAIR      59  44  57 CALM      30.06R
6HR MIN TEMP:  57; 6HR MAX TEMP:  70;

FTW-SPINKS     FAIR      52  46  79 CALM      30.04R
6HR MIN TEMP:  50; 6HR MAX TEMP:  67;

ARLINGTON      FAIR      51  46  83 CALM      30.02S
6HR MIN TEMP:  50; 6HR MAX TEMP:  70;

GRAND PRAIRIE  FAIR      58  47  67 SW3       30.04R
6HR MIN TEMP:  57; 6HR MAX TEMP:  67;

ADDISON        FAIR      57  43  61 SE5       30.04R
6HR MIN TEMP:  56; 6HR MAX TEMP:  68;

MESQUITE       FAIR      52  48  84 S3        30.03S
6HR MIN TEMP:  52; 6HR MAX TEMP:  67;

LANCASTER      FAIR      48  45  90 CALM      30.03S
6HR MIN TEMP:  47; 6HR MAX TEMP:  66;

$$

TXZ091>094-102>105-117-120-121-131>134-210700-
NORTH CENTRAL TEXAS

CITY           SKY/WX    TMP DP  RH WIND       PRES   REMARKS
SHRMAN/DENISON FAIR      55  45  68 SE6       30.03R
6HR MIN TEMP:  51; 6HR MAX TEMP:  67;

GAINESVILLE    FAIR      52  45  77 CALM      30.04R
6HR MIN TEMP:  51; 6HR MAX TEMP:  65;

BOWIE          FAIR      49  44  85 CALM      30.01S
6HR MIN TEMP:  47; 6HR MAX TEMP:  65;

BRIDGEPORT     FAIR      50  45  82 E6        30.04R
6HR MIN TEMP:  50; 6HR MAX TEMP:  67;

DECATUR        FAIR      56  38  50 SE6       30.02R
6HR MIN TEMP:  54; 6HR MAX TEMP:  67;

DENTON         FAIR      51  47  86 CALM      30.02R
6HR MIN TEMP:  49; 6HR MAX TEMP:  67; 6HR PCP: TRACE;

MCKINNEY       FAIR      51  46  83 CALM      30.03R
6HR MIN TEMP:  50; 6HR MAX TEMP:  68;

GREENVILLE     FAIR      50  46  87 CALM      30.03R
ROCKWALL       FAIR      56  42  59 S5        30.02R
6HR MIN TEMP:  56; 6HR MAX TEMP:  67;

TERRELL        FAIR      54  49  83 CALM      30.03S
6HR MIN TEMP:  53; 6HR MAX TEMP:  70;

WAXAHACHIE     FAIR      51  46  84 CALM      30.04S
6HR MIN TEMP:  50; 6HR MAX TEMP:  67;

CLEBURNE       FAIR      55  46  71 SE6       30.03F
GRANBURY         N/A     54  49  81 CALM      30.03S
6HR MIN TEMP:  52; 6HR MAX TEMP:  69;

$$

TXZ083>090-098>101-113>116-127>130-139>142-154-155-210700-
WESTERN NORTH TEXAS

CITY           SKY/WX    TMP DP  RH WIND       PRES   REMARKS
WICHITA FALLS  FAIR      51  41  68 SE9       29.99F
6HR MIN TEMP:  49; 6HR MAX TEMP:  66;

WF-KICKAPOO    FAIR      52  42  69 SE6       30.00F
6HR MIN TEMP:  52; 6HR MAX TEMP:  68;

VERNON         FAIR      58  35  43 SE8       29.99F
6HR MIN TEMP:  44; 6HR MAX TEMP:  70;

ABILENE        FAIR      53  42  66 SE8       29.98R
6HR MIN TEMP:  53; 6HR MAX TEMP:  70;

ABILENE-DYESS  FAIR      49  44  83 S5        29.96S
6HR MIN TEMP:  49; 6HR MAX TEMP:  70;

BRECKENRIDGE   FAIR      55  38  52 SE7       29.99S
6HR MIN TEMP:  55; 6HR MAX TEMP:  72;

GRAHAM         FAIR      53  43  67 E3        29.99S
6HR MIN TEMP:  53; 6HR MAX TEMP:  69;

MINERAL WELLS  FAIR      53  43  68 SE6       30.00R
6HR MIN TEMP:  52; 6HR MAX TEMP:  68;

STEPHENVILLE   FAIR      54  41  61 SE3       30.03S
6HR MIN TEMP:  54; 6HR MAX TEMP:  67;

COMANCHE       FAIR      51  45  78 SE7       30.01S
6HR MIN TEMP:  51; 6HR MAX TEMP:  67;

BROWNWOOD      MOCLDY    52  45  76 SE3       30.00S
COLEMAN        FAIR      54  46  72 SE3       30.00R
6HR MIN TEMP:  54; 6HR MAX TEMP:  71;

BRADY          CLEAR     55  45  67 SE6       29.99S
$$

TXZ143>147-156>162-174-175-210700-
CENTRAL TEXAS

CITY           SKY/WX    TMP DP  RH WIND       PRES   REMARKS
WACO           FAIR      50  47  89 CALM      30.02R
6HR MIN TEMP:  50; 6HR MAX TEMP:  66;

WACO-MCGREGOR  FAIR      55  43  62 CALM      30.03R
6HR MIN TEMP:  55; 6HR MAX TEMP:  68;

HILLSBORO      FAIR      54  43  66 E3        30.03R
6HR MIN TEMP:  53; 6HR MAX TEMP:  67;

CORSICANA      FAIR      58  46  64 E5        30.04R
6HR MIN TEMP:  57; 6HR MAX TEMP:  68;

MEXIA          FAIR      58  44  59 MISG      30.02S
6HR MIN TEMP:  56; 6HR MAX TEMP:  65;

HEARNE         MOCLDY    59  48  67 CALM      30.02S
6HR MIN TEMP:  57; 6HR MAX TEMP:  67;

CAMERON        FAIR      59  51  75 CALM      30.01S
6HR MIN TEMP:  59; 6HR MAX TEMP:  66;

TEMPLE         FAIR      54  43  66 E7        29.99F
6HR MIN TEMP:  54; 6HR MAX TEMP:  64;

KILLEEN        FAIR      57  46  65 SE6       30.00S
6HR MIN TEMP:  55; 6HR MAX TEMP:  67;

KILLEEN-SKYLRK FAIR      55  45  67 E3        29.99S
6HR MIN TEMP:  55; 6HR MAX TEMP:  66;

FORT HOOD      FAIR      57  44  62 E5        29.99F
6HR MIN TEMP:  57; 6HR MAX TEMP:  67;

GATESVILLE     FAIR      54  46  76 CALM      30.03S
HAMILTON       FAIR      56  45  65 SE6       30.02S
6HR MIN TEMP:  55; 6HR MAX TEMP:  68;

LAMPASAS       FAIR      55  47  74 CALM      30.00R
6HR MIN TEMP:  55; 6HR MAX TEMP:  68;

$$

TXZ095>097-106>112-122>126-135>138-148>153-164>167-210700-
EAST TEXAS

CITY           SKY/WX    TMP DP  RH WIND       PRES   REMARKS
PARIS          FAIR      52  39  62 MISG      30.03R
6HR MIN TEMP:  52; 6HR MAX TEMP:  66;

SULPHUR SPRNGS   N/A     53  47  83 CALM      30.05R
6HR MIN TEMP:  53; 6HR MAX TEMP:  66;

MOUNT PLEASANT FAIR      49  49  98 CALM      30.05R
6HR MIN TEMP:  49; 6HR MAX TEMP:  68;

GILMER         FAIR      50  47  92 CALM      30.03S
6HR MIN TEMP:  49; 6HR MAX TEMP:  66;

TYLER          FAIR      54  48  80 CALM      30.03R
6HR MIN TEMP:  53; 6HR MAX TEMP:  68;

LONGVIEW       FAIR      52  48  86 CALM      30.02R
6HR MIN TEMP:  52; 6HR MAX TEMP:  67;

MARSHALL       FAIR      53  51  92 CALM      30.05R
6HR MIN TEMP:  53; 6HR MAX TEMP:  68;

ATHENS         FAIR      50  48  93 CALM      30.03R
PALESTINE      CLOUDY    55  46  72 CALM      30.04R
JACKSONVILLE   CLOUDY    58  45  60 CALM      30.05R
HENDERSON      FAIR      50  49  97 CALM      30.05R
6HR MIN TEMP:  50; 6HR MAX TEMP:  66;

NACOGDOCHES    MOCLDY    52  48  87 CALM      30.04R
6HR MIN TEMP:  52; 6HR MAX TEMP:  66;

LUFKIN         MOCLDY    58  53  84 CALM      30.02S
6HR MIN TEMP:  58; 6HR MAX TEMP:  69;

$$

SUPPLEMENTAL OBSERVATIONS (CENTRAL)

CITY           SKY/WX    TMP DP  RH WIND       PRES   REMARKS
LAKE TEXOMA      N/A     55  45  67 SE2         N/A
CADDO GRASSLND   N/A     46  41  81 S1          N/A
PAT MAYSE LAKE   N/A     52  48  87 SE2         N/A
GREENVILLE       N/A     52  46  82 SE1         N/A
CEDAR HILL       N/A     55  39  54 SE6         N/A


USA.gov is the U.S. government's official web portal to all federal, state and local government web resources and services.